GALAXY 28 (G-28)

Last updated on Mon Sep 07 2026 00:02:57 GMT+0000 (Coordinated Universal Time)

1 28702U 05022A 26249.39419995 -.00000216 00000+0 00000+0 0 9998 2 28702 3.5015 77.8792 0001866 87.0777 295.3500 1.00271204 52796
UTC large
Height (km)
Speed (km/s)
/
Latitude / Longitude
Inclination (degrees)
Orbital Period (minutes)
Azimuth
Elevation
Range (km)
Doppler Factor

Next 0 passes for location: London (51.5072 / 0.1276)

No passes found over London.
GALAXY 28 (G-28)